User: anonymous   Login
Location: Unspecified
(0.0000°N, 0.0000°E)
Time: 03:25:09
(UTC+00:00)
Language:

DSP F15 - Orbit

View from above orbital plane
View from above orbital plane
View from above satellite
View from above satellite

Ground track
Ground track

The orbit data is extracted from the following two-line orbital elements,

1 20929U 90095A   18297.71604561 0.00000000  00000-0  00000-0 0    05
2 20929  15.4069   6.1608 0007321   5.4284 354.6060  0.98388222    02
Epoch (UTC): 24 October 2018 17:11:06
Eccentricity: 0.0007321
inclination: 15.4069°
perigee height: 36291 km
apogee height: 36354 km
right ascension of ascending node: 6.1608°
argument of perigee: 5.4284°
revolutions per day: 0.98388222
mean anomaly at epoch: 354.6060°
orbit number at epoch: 0

The dashed part of the orbit path shows where the satellite is in the earth's shadow,  

DLR